EHI
0 0 0 0 0 0 0 0 0 0 0 0 0 0 0 0 0 0 0 0 0 0 0 0 0 0 0 0 0 0 0 0 0 0 0 0 0 0
0 0 0 0 0 0 0 0 0 0 0 0 0 0 0 0 0 0 0 0 0 0 0 0 0 0 0 0 0 0 0 0 0 0 0 0 0 0
0 0 0 0 0 0 0 0 0 0 0 0 0 0 0 0 0 0 0 0 0 0 0 0 0 0 0 0 0 0 0 0 0 0 0 0 0 0
0 0 0 0 0 0 0 0 0 0 0 0 0 0 0 0 0 0 0 0 0 0 0 0 0 0 0 0 0 0 0 0 0 0 0 0 0 0
0 0 0 0 0 0 0 0 0 0 0 0 0 0 0 0 0 0 0 0 0 0 0 0 0 0 0 0 0 0 0 0 0 0 0 0 0 0
0 0 0 0 0 0 0 0 0 0 0 0 0 0 0 0 0 0 0 0 0 0 0 0 0 0 0 0 0 0 0 0 0 0 0 0 0 0
0 0 0 0 0 0 0 0 0 0 0 0 0 0 0 0 0 0 0 0 0 0 0 0 0 0 0 0 0 0 0 0 0 0 0 0 0 0
0 0 0 0 0 0 0 0 0 0 0 0 0 0 0 0 0 0 0 0 0 0 0 0 0 0 0 0 0 0 0 0 0 0 0 0 0 0
0 0 0 0 0 0 0 0 0 0 0 0 0 0 0 0 0 0 0 0 0 0 0 0 0 0 0 0 0 0 0 0 0 0 0 0 0 0
0 0 0 0 0 0 0 0 0 0 0 0 0 0 0 0 0 0 0 0 0 0 0 0 0 0 0 0 0 0 0 0 0 0 0 0 0 0
0 0 0 0 0 0 0 0 0 0 0 0 0 0 0 0 0 0 0 0 0 0 0 0 0 0 0 0 0 0 0 0 0 0 0 0 0 0
0 0 0 0 0 0 0 0 0 0 0 0 0 0 0 0 0 0 0 0 0 0 0 0 0 0 0 0 0 0 0 0 0 0 0 0 0 0
0 0 0 0 0 0 0 0 0 0 0 0 0 0 0 0 0 0 0 0 0 0 0 0 0 0 0 0 0 0 0 0 0 0 0 0 0 0
0 0 0 0 0 0 0 0 0 0 0 0 0 0 0 0 0 0 0 0 0 0 0 0 0 0 0 0 0 0 0 0 0 0 0 0 0 0
0 0 0 0 0 0 0 0 0 0 0 0 0 0 0 0 0 0 0 0 0 0 0 0 0 0 0 0 0 0 0 0 0 0 0 0 0 0
0 0 0 0 0 0 0 0 0 0 0 0 0 0 0 0 0 0 0 0 0 0 0 0 0 0 0 0 0 0 0 0 0 0 0 0 0 0
0 0 0 0 0 0 0 0 0 0 0 0 0 0 0 0 0 0 0 0 0 0 0 0 0 0 0 0 0 0 0 0 0 0 0 0 0 0
0 0 0 0 0 0 0 0 0 0 0 0 0 0 0 0 0 0 0 0 0 0 0 0 0 0 0 0 0 0 0 0 0 0 0 0 0 0
0 0 0 0 0 0 0 0 0 0 0 0 0 0 0 0 0 0 0 0 0 0 0 0 0 0 0 0 0 0 0 0 0 0 0 0 0 0
0 0 0 0 0 0 0 0 0 0 0 0 0 0 0 0 0 0 0 0 0 0 0 0 0 0 0 0 0 0 0 0 0 0 0 0 0 0
0 0 0 0 0 0 0 0 0 0 0 0 0 0 0 0 0 0 0 0 0 0 0 0 0 0 0 0 0 0 0 0 0 0 0 0 0 0
0 0 0 0 0 0 0 0 0 0 0 0 0 0 0 0 0 0 0 0 0 0 0 0 0 0 0 0 0 0 0 0 0 0 0 0 0 0
0 0 0 0 0 0 0 0 0 0 0 0 0 0 0 0 0 0 0 0 0 0 0 0 0 0 0 0 0 0 0 0 0 0 0 0 0 0
Wind_Speed
2 2 2 3 4 5 6 7 8 7 5 5 4 3 3 4 5 5 7 9 7 6 6 6 6 6 6 5 5 5 5 5 6 7 8 8 9 10
3 4 4 4 5 5 5 4 5 7 6 6 5 6 5 6 5 4 6 9 6 5 5 4 4 4 3 3 3 3 3 4 4 5 7 7 8 9
5 6 6 7 6 5 5 5 6 7 10 8 7 7 6 5 5 4 5 5 7 6 5 4 3 3 2 2 2 1 2 2 3 4 5 6 7 8
8 8 9 7 8 7 6 7 7 7 10 12 9 8 7 6 5 4 4 3 5 9 5 4 3 3 2 2 2 1 0 1 2 3 4 5 6 7
9 10 10 10 9 8 8 8 8 8 9 10 9 7 6 5 6 5 4 2 4 8 8 7 6 4 3 3 3 2 2 2 2 2 4 5 6 6
11 11 10 10 10 9 8 9 9 10 9 9 8 7 6 6 4 5 5 4 2 4 4 4 7 7 6 5 4 3 3 3 3 3 4 4 5 6
13 13 13 13 12 9 8 9 9 8 8 8 8 7 6 5 4 3 3 4 3 1 2 4 5 5 7 8 7 4 3 3 4 4 5 5 5 5
13 12 12 13 15 15 14 12 9 7 7 6 6 7 6 4 3 2 2 3 3 2 2 2 1 1 2 2 5 3 3 4 5 5 6 6 6 6
11 10 10 10 11 13 13 12 12 11 6 4 7 6 6 4 2 3 2 1 2 2 2 1 1 1 1 4 6 3 4 5 6 6 6 6 6 6
11 11 10 10 9 8 10 11 10 9 6 6 7 5 5 4 1 1 2 2 3 2 2 1 0 0 0 3 8 6 5 5 6 6 6 7 7 7
11 11 10 11 8 5 8 9 9 8 8 8 7 6 5 3 3 2 2 2 2 3 1 2 1 1 1 1 6 10 9 8 7 6 6 7 7 9
10 10 13 10 8 7 7 8 8 7 6 7 5 5 5 4 2 3 3 2 1 2 2 2 2 2 1 0 1 3 5 9 10 9 7 6 6 7
8 8 8 8 8 8 5 7 5 2 4 5 5 4 4 3 3 1 2 4 4 3 2 2 3 3 3 2 1 1 2 1 3 5 8 8 7 7
7 8 8 7 7 7 6 4 2 4 2 3 3 3 3 3 3 2 2 3 3 3 3 4 4 4 5 4 3 2 2 2 2 3 2 6 9 9
7 8 5 3 5 6 5 1 3 0 3 3 4 3 3 3 1 1 1 2 3 3 2 3 5 5 5 5 4 4 3 3 2 2 3 3 2 2
6 6 4 2 3 4 3 2 2 5 4 3 3 3 2 1 1 1 1 1 2 1 3 4 4 5 6 5 5 4 4 3 3 3 4 5 3 3
1 4 4 4 4 4 4 4 3 3 2 3 2 2 2 2 2 1 2 3 3 3 2 1 4 5 6 6 5 4 4 4 3 3 5 6 4 3
3 3 3 3 4 3 3 3 3 3 3 2 2 2 2 3 3 2 3 3 3 3 3 3 3 4 4 3 3 5 4 4 4 4 5 5 5 3
0 3 3 3 3 2 2 2 3 3 2 2 3 3 3 3 3 3 3 4 4 4 4 4 4 5 5 4 2 3 4 5 6 6 4 5 5 4
2 3 2 2 2 2 2 2 2 1 1 2 3 3 3 4 4 4 4 5 5 5 5 4 4 5 6 6 6 3 6 4 5 6 6 6 5 3
3 2 2 2 2 2 2 2 2 2 3 3 3 3 4 4 4 5 4 3 5 5 5 4 3 2 5 6 6 4 1 5 4 4 7 7 7 6
3 2 2 2 2 2 1 1 1 1 2 3 3 3 4 4 5 6 6 6 5 5 6 5 4 4 5 5 6 5 4 2 6 10 10 7 6 7
2 2 1 1 1 1 2 2 3 3 3 3 4 4 4 5 5 5 6 6 6 6 6 6 5 5 5 5 6 6 7 6 5 4 5 10 15 14
Wind_Direction
100 126 136 130 135 134 139 149 144 145 141 150 152 154 149 125 138 139 122 115 114 112 109 106 103 98 92 86 81 74 67 58 48 39 32 27 22 18
82 92 102 104 108 116 132 135 136 137 131 145 150 153 151 139 145 139 123 135 132 128 125 121 121 113 108 100 95 88 75 59 46 35 27 23 17 13
86 91 99 106 114 121 124 124 122 121 123 128 131 135 143 143 144 151 150 167 139 135 132 134 138 139 138 135 123 108 79 55 38 24 16 13 9 5
85 88 94 101 102 105 109 111 112 121 129 132 137 142 144 144 143 164 154 167 140 135 149 152 157 160 167 174 170 174 181 10 3 358 357 358 356 354
84 89 93 97 99 103 109 111 116 119 125 132 133 135 143 144 155 160 147 159 154 149 169 173 171 176 183 190 199 213 233 258 286 312 329 336 338 340
79 79 82 89 96 104 105 111 114 119 125 129 133 141 142 151 169 159 153 160 165 160 157 167 171 190 196 199 206 221 236 252 271 287 297 305 313 319
81 78 76 76 69 75 96 107 116 123 128 131 136 140 137 156 157 156 147 156 150 161 191 179 180 195 183 193 195 201 234 254 268 278 284 290 295 300
87 89 93 89 83 75 72 72 78 104 115 127 126 122 127 130 115 149 153 170 149 128 261 177 199 203 186 129 125 169 237 259 268 273 278 282 284 285
82 85 88 93 98 99 95 92 76 63 64 78 102 104 114 104 119 135 96 41 55 72 284 194 177 200 174 114 143 197 247 260 267 272 276 278 277 275
82 84 87 87 80 90 101 96 93 81 69 80 87 87 90 92 99 97 135 175 179 154 279 282 72 346 32 136 162 200 230 250 261 269 276 279 276 268
78 75 82 87 59 51 99 101 99 101 88 72 65 69 61 35 334 254 199 214 149 130 132 312 359 323 280 202 168 193 212 226 240 251 264 273 276 269
91 85 68 64 46 30 90 100 101 101 109 123 126 151 152 151 238 297 332 348 29 93 92 313 339 328 312 333 337 188 208 212 222 228 234 247 265 280
92 89 76 57 52 37 45 78 75 75 123 134 136 138 142 146 156 120 355 338 353 21 40 318 326 326 317 319 315 319 318 311 230 215 212 219 233 272
82 85 86 74 67 51 61 67 323 277 136 117 109 104 96 83 70 47 25 350 337 329 331 323 316 325 319 320 326 339 327 314 316 324 323 188 218 231
74 73 84 113 134 106 93 345 268 136 81 84 80 76 72 62 53 144 172 223 242 244 256 275 291 307 305 308 318 324 320 322 320 314 314 314 310 255
112 123 140 93 103 101 145 158 69 51 39 63 61 57 59 76 23 17 358 313 285 224 201 234 262 286 291 305 303 303 309 311 308 313 321 307 291 286
82 137 134 129 118 103 94 82 84 95 68 50 43 36 33 28 18 12 334 318 321 327 329 242 228 238 256 277 297 308 311 309 314 333 301 300 306 302
309 103 97 91 87 90 94 98 86 60 42 31 27 25 16 5 359 346 333 330 327 328 330 327 315 297 268 223 254 302 317 322 321 306 289 300 314 326
236 87 80 72 67 65 68 70 67 58 17 3 11 6 357 352 346 342 348 343 334 331 327 320 320 321 322 327 191 241 311 324 317 311 307 307 307 319
75 74 78 77 66 45 42 41 40 46 23 359 1 353 346 338 337 340 348 350 334 324 318 320 333 339 333 329 322 285 213 288 319 321 322 313 301 271
71 69 63 57 50 48 39 33 5 0 2 334 342 342 336 328 331 332 332 335 300 308 319 328 0 247 278 282 291 306 267 196 249 290 313 314 320 318
55 61 60 43 28 16 11 341 316 324 312 302 326 325 324 321 321 321 322 321 318 322 322 317 304 273 279 290 301 308 310 279 219 227 249 267 310 322
56 36 53 62 9 320 345 348 324 325 326 323 320 318 317 315 311 309 309 313 319 323 319 318 317 305 304 304 304 306 308 305 299 272 245 216 226 241